OBJECT E

基本信息
目录编号:
61242
目录名称:
OBJECT E
国际标识:
2024-174E
轨道中心:
EARTH
物体状态:
在轨
发射日期:
2024-09-24 UTC
国别:
中国 (CN)
轨道信息
数据来源: 国际轨道数据
星历时间: 2026-09-04T04:31:19+0800
半长轴: 6858.805km
偏心率: 0.0011539
轨道倾角: 97.448°
近地点辐角: 322.921°
升交点赤经: 257.768°
平近点角: 37.123°
近地点: 472.753km
远地点: 488.583km
周期: 94.218分钟
每日圈数: 15.283757
详细信息
发射场:
JSC
轨道高度:
LEO
数据来源:
AOE Working Group
参考系:
TEME
时间系统:
UTC
历元类型:
SGP4
2D轨道图
3D轨道图
轨道高度分析图
轨道倾角分析图
轨道综合分析图
查看轨道综合分析图